QPF
0.01 0.01 0.00 0.00 0.00 0.00 0.00 0.00 0.00 0.00 0.00 0.00 0.00 0.00 0.00 0.00 0.00 0.00 0.00 0.00 0.00 0.00 0.00 0.00 0.00 0.00 0.00 0.00 0.00 0.00 0.00 0.00 0.00 0.00 0.00 0.00 0.00 0.00 0.00 0.00 0.00 0.00 0.00 0.00
0.01 0.01 0.00 0.00 0.00 0.00 0.00 0.00 0.00 0.00 0.00 0.00 0.00 0.00 0.00 0.00 0.00 0.00 0.00 0.00 0.00 0.00 0.00 0.00 0.00 0.00 0.00 0.00 0.00 0.00 0.00 0.00 0.00 0.00 0.00 0.00 0.00 0.00 0.00 0.00 0.00 0.00 0.00 0.00
0.01 0.00 0.00 0.00 0.00 0.00 0.00 0.00 0.00 0.00 0.00 0.00 0.00 0.00 0.00 0.00 0.00 0.00 0.00 0.00 0.00 0.00 0.00 0.00 0.00 0.00 0.00 0.00 0.00 0.00 0.00 0.00 0.00 0.00 0.00 0.00 0.00 0.00 0.00 0.00 0.00 0.00 0.00 0.00
0.00 0.00 0.00 0.00 0.00 0.00 0.00 0.00 0.00 0.00 0.00 0.00 0.00 0.00 0.00 0.00 0.00 0.00 0.00 0.00 0.00 0.00 0.00 0.00 0.00 0.00 0.00 0.00 0.00 0.00 0.00 0.00 0.00 0.00 0.00 0.00 0.00 0.00 0.00 0.00 0.00 0.00 0.00 0.00
0.00 0.00 0.00 0.00 0.00 0.00 0.00 0.00 0.00 0.00 0.00 0.00 0.00 0.00 0.00 0.00 0.00 0.00 0.00 0.00 0.00 0.00 0.00 0.00 0.00 0.00 0.00 0.00 0.00 0.00 0.00 0.00 0.00 0.00 0.00 0.00 0.00 0.00 0.00 0.00 0.00 0.00 0.00 0.00
0.00 0.00 0.00 0.00 0.00 0.00 0.00 0.00 0.00 0.00 0.00 0.00 0.00 0.00 0.00 0.00 0.00 0.00 0.00 0.00 0.00 0.00 0.00 0.00 0.00 0.00 0.00 0.00 0.00 0.00 0.00 0.00 0.00 0.00 0.00 0.00 0.00 0.00 0.00 0.00 0.00 0.00 0.00 0.00
0.00 0.00 0.00 0.00 0.00 0.00 0.00 0.00 0.00 0.00 0.00 0.00 0.00 0.00 0.00 0.00 0.00 0.00 0.00 0.00 0.00 0.00 0.00 0.00 0.00 0.00 0.00 0.00 0.00 0.00 0.00 0.00 0.00 0.00 0.00 0.00 0.00 0.00 0.00 0.00 0.00 0.00 0.00 0.00
0.00 0.00 0.00 0.00 0.00 0.00 0.00 0.00 0.00 0.00 0.00 0.00 0.00 0.00 0.00 0.00 0.00 0.00 0.00 0.00 0.00 0.00 0.00 0.00 0.00 0.00 0.00 0.00 0.00 0.00 0.00 0.00 0.00 0.00 0.00 0.00 0.00 0.00 0.00 0.00 0.00 0.00 0.00 0.00
0.00 0.00 0.00 0.00 0.00 0.00 0.00 0.00 0.00 0.00 0.00 0.00 0.00 0.00 0.00 0.00 0.00 0.00 0.00 0.00 0.00 0.00 0.00 0.00 0.00 0.00 0.00 0.00 0.00 0.00 0.00 0.00 0.00 0.00 0.00 0.00 0.00 0.00 0.00 0.00 0.00 0.00 0.00 0.00
0.00 0.00 0.00 0.00 0.00 0.00 0.00 0.00 0.00 0.00 0.00 0.00 0.00 0.00 0.00 0.00 0.00 0.00 0.00 0.00 0.00 0.00 0.00 0.00 0.00 0.00 0.00 0.00 0.00 0.00 0.00 0.00 0.00 0.00 0.00 0.00 0.00 0.00 0.00 0.00 0.00 0.00 0.00 0.00
0.00 0.00 0.00 0.00 0.00 0.00 0.00 0.00 0.00 0.00 0.00 0.00 0.00 0.00 0.00 0.00 0.00 0.00 0.00 0.00 0.00 0.00 0.00 0.00 0.00 0.00 0.00 0.00 0.00 0.00 0.00 0.00 0.00 0.00 0.00 0.00 0.00 0.00 0.00 0.00 0.00 0.00 0.00 0.00
0.00 0.00 0.00 0.00 0.00 0.00 0.00 0.00 0.00 0.00 0.00 0.00 0.00 0.00 0.00 0.00 0.00 0.00 0.00 0.00 0.00 0.00 0.00 0.00 0.00 0.00 0.00 0.00 0.00 0.00 0.00 0.00 0.00 0.00 0.00 0.00 0.00 0.00 0.00 0.00 0.00 0.00 0.00 0.00
0.00 0.00 0.00 0.00 0.00 0.00 0.00 0.00 0.00 0.00 0.00 0.00 0.00 0.00 0.00 0.00 0.00 0.00 0.00 0.00 0.00 0.00 0.00 0.00 0.00 0.00 0.00 0.00 0.00 0.00 0.00 0.00 0.00 0.00 0.00 0.00 0.00 0.00 0.00 0.00 0.00 0.00 0.00 0.00
0.00 0.00 0.00 0.00 0.00 0.00 0.00 0.00 0.00 0.00 0.00 0.00 0.00 0.00 0.00 0.00 0.00 0.00 0.00 0.00 0.00 0.00 0.00 0.00 0.00 0.00 0.00 0.00 0.00 0.00 0.00 0.00 0.00 0.00 0.00 0.00 0.00 0.00 0.00 0.00 0.00 0.00 0.00 0.00
0.00 0.00 0.00 0.00 0.00 0.00 0.00 0.00 0.00 0.00 0.00 0.00 0.00 0.00 0.00 0.00 0.00 0.00 0.00 0.00 0.00 0.00 0.00 0.00 0.00 0.00 0.00 0.00 0.00 0.00 0.00 0.00 0.00 0.00 0.00 0.00 0.00 0.00 0.00 0.00 0.00 0.00 0.00 0.00
0.00 0.00 0.00 0.00 0.00 0.00 0.00 0.00 0.00 0.00 0.00 0.00 0.00 0.00 0.00 0.00 0.00 0.00 0.00 0.00 0.00 0.00 0.00 0.00 0.00 0.00 0.00 0.00 0.00 0.00 0.00 0.00 0.00 0.00 0.00 0.00 0.00 0.00 0.00 0.00 0.00 0.00 0.00 0.00
0.00 0.00 0.00 0.00 0.00 0.00 0.00 0.00 0.00 0.00 0.00 0.00 0.00 0.00 0.00 0.00 0.00 0.00 0.00 0.00 0.00 0.00 0.00 0.00 0.00 0.00 0.00 0.00 0.00 0.00 0.00 0.00 0.00 0.00 0.00 0.00 0.00 0.00 0.00 0.00 0.00 0.00 0.00 0.00
0.00 0.00 0.00 0.00 0.00 0.00 0.00 0.00 0.00 0.00 0.00 0.00 0.00 0.00 0.00 0.00 0.00 0.00 0.00 0.00 0.00 0.00 0.00 0.00 0.00 0.00 0.00 0.00 0.00 0.00 0.00 0.00 0.00 0.00 0.00 0.00 0.00 0.00 0.00 0.00 0.00 0.00 0.00 0.00
0.00 0.00 0.00 0.00 0.00 0.00 0.00 0.00 0.00 0.00 0.00 0.00 0.00 0.00 0.00 0.00 0.00 0.00 0.00 0.00 0.00 0.00 0.00 0.00 0.00 0.00 0.00 0.00 0.00 0.00 0.00 0.00 0.00 0.00 0.00 0.00 0.00 0.00 0.00 0.00 0.00 0.00 0.00 0.00
0.00 0.00 0.00 0.00 0.00 0.00 0.00 0.00 0.00 0.00 0.00 0.00 0.00 0.00 0.00 0.00 0.00 0.00 0.00 0.00 0.00 0.00 0.00 0.00 0.00 0.00 0.00 0.00 0.00 0.00 0.00 0.00 0.00 0.00 0.00 0.00 0.00 0.00 0.00 0.00 0.00 0.00 0.00 0.00
0.00 0.00 0.00 0.00 0.00 0.00 0.00 0.00 0.00 0.00 0.00 0.00 0.00 0.00 0.00 0.00 0.00 0.00 0.00 0.00 0.00 0.00 0.00 0.00 0.00 0.00 0.00 0.00 0.00 0.00 0.00 0.00 0.00 0.00 0.00 0.00 0.00 0.00 0.00 0.00 0.00 0.00 0.00 0.00
0.00 0.00 0.00 0.00 0.00 0.00 0.00 0.00 0.00 0.00 0.00 0.00 0.00 0.00 0.00 0.00 0.00 0.00 0.00 0.00 0.00 0.00 0.00 0.00 0.00 0.00 0.00 0.00 0.00 0.00 0.00 0.00 0.00 0.00 0.00 0.00 0.00 0.00 0.00 0.00 0.00 0.00 0.00 0.00
0.00 0.00 0.00 0.00 0.00 0.00 0.00 0.00 0.00 0.00 0.00 0.00 0.00 0.00 0.00 0.00 0.00 0.00 0.00 0.00 0.00 0.00 0.00 0.00 0.00 0.00 0.00 0.00 0.00 0.00 0.00 0.00 0.00 0.00 0.00 0.00 0.00 0.00 0.00 0.00 0.00 0.00 0.00 0.00
0.00 0.00 0.00 0.00 0.00 0.00 0.00 0.00 0.00 0.00 0.00 0.00 0.00 0.00 0.00 0.00 0.00 0.00 0.00 0.00 0.00 0.00 0.00 0.00 0.00 0.00 0.00 0.00 0.00 0.00 0.00 0.00 0.00 0.00 0.00 0.00 0.00 0.00 0.00 0.00 0.00 0.00 0.00 0.00
0.00 0.00 0.00 0.00 0.00 0.00 0.00 0.00 0.00 0.00 0.00 0.00 0.00 0.00 0.00 0.00 0.00 0.00 0.00 0.00 0.00 0.00 0.00 0.00 0.00 0.00 0.00 0.00 0.00 0.00 0.00 0.00 0.00 0.00 0.00 0.00 0.00 0.00 0.00 0.00 0.00 0.00 0.00 0.00
0.01 0.00 0.00 0.00 0.00 0.00 0.00 0.00 0.00 0.00 0.00 0.00 0.00 0.00 0.00 0.00 0.00 0.00 0.00 0.00 0.00 0.00 0.00 0.00 0.00 0.00 0.00 0.00 0.00 0.00 0.00 0.01 0.01 0.01 0.01 0.01 0.01 0.01 0.00 0.00 0.00 0.00 0.00 0.00
0.00 0.00 0.01 0.01 0.01 0.00 0.00 0.00 0.00 0.00 0.00 0.00 0.00 0.00 0.00 0.00 0.00 0.00 0.00 0.00 0.00 0.00 0.00 0.00 0.00 0.00 0.00 0.01 0.01 0.01 0.01 0.01 0.01 0.01 0.01 0.01 0.00 0.00 0.00 0.00 0.00 0.00 0.00 0.00
MSLP
1014.69 1015.10 1015.45 1015.71 1015.88 1015.94 1015.91 1015.79 1015.62 1015.43 1015.25 1015.12 1015.09 1015.19 1015.42 1015.78 1016.28 1016.88 1017.55 1018.26 1018.97 1019.64 1020.27 1020.84 1021.33 1021.76 1022.13 1022.45 1022.74 1023.00 1023.24 1023.46 1023.67 1023.85 1024.00 1024.10 1024.17 1024.19 1024.17 1024.11 1024.02 1023.90 1023.78 1023.65
1014.28 1014.61 1014.85 1014.99 1015.04 1014.98 1014.86 1014.68 1014.48 1014.29 1014.14 1014.07 1014.11 1014.27 1014.56 1014.97 1015.50 1016.11 1016.80 1017.53 1018.26 1018.99 1019.69 1020.34 1020.93 1021.46 1021.94 1022.35 1022.71 1023.03 1023.30 1023.54 1023.75 1023.92 1024.06 1024.17 1024.24 1024.28 1024.28 1024.24 1024.18 1024.09 1023.99 1023.88
1014.05 1014.27 1014.38 1014.39 1014.29 1014.12 1013.89 1013.64 1013.40 1013.20 1013.08 1013.05 1013.13 1013.33 1013.65 1014.09 1014.62 1015.24 1015.93 1016.66 1017.42 1018.19 1018.94 1019.67 1020.36 1020.99 1021.57 1022.07 1022.51 1022.89 1023.20 1023.47 1023.69 1023.87 1024.02 1024.14 1024.23 1024.29 1024.32 1024.32 1024.29 1024.23 1024.14 1024.04
1014.00 1014.08 1014.04 1013.89 1013.64 1013.34 1013.01 1012.68 1012.39 1012.18 1012.06 1012.05 1012.15 1012.38 1012.71 1013.15 1013.69 1014.30 1014.97 1015.70 1016.48 1017.27 1018.08 1018.88 1019.65 1020.37 1021.04 1021.63 1022.15 1022.59 1022.96 1023.26 1023.51 1023.71 1023.88 1024.03 1024.14 1024.24 1024.30 1024.34 1024.34 1024.30 1024.23 1024.12
1014.05 1013.96 1013.75 1013.44 1013.05 1012.61 1012.17 1011.77 1011.44 1011.20 1011.08 1011.07 1011.19 1011.43 1011.77 1012.20 1012.72 1013.32 1013.99 1014.72 1015.50 1016.32 1017.16 1018.01 1018.85 1019.65 1020.40 1021.08 1021.67 1022.17 1022.60 1022.95 1023.23 1023.48 1023.68 1023.86 1024.01 1024.14 1024.25 1024.31 1024.34 1024.32 1024.24 1024.12
1014.06 1013.81 1013.43 1012.96 1012.43 1011.88 1011.36 1010.90 1010.53 1010.27 1010.14 1010.14 1010.27 1010.51 1010.85 1011.28 1011.79 1012.37 1013.03 1013.75 1014.53 1015.37 1016.24 1017.14 1018.03 1018.89 1019.71 1020.45 1021.11 1021.68 1022.16 1022.57 1022.90 1023.19 1023.44 1023.66 1023.85 1024.02 1024.15 1024.24 1024.28 1024.26 1024.18 1024.03
1013.92 1013.51 1012.99 1012.38 1011.75 1011.12 1010.53 1010.04 1009.65 1009.40 1009.28 1009.29 1009.43 1009.67 1010.02 1010.44 1010.94 1011.52 1012.16 1012.87 1013.65 1014.49 1015.38 1016.30 1017.23 1018.14 1019.01 1019.81 1020.53 1021.16 1021.70 1022.16 1022.55 1022.88 1023.17 1023.43 1023.66 1023.86 1024.01 1024.12 1024.16 1024.13 1024.02 1023.85
1013.50 1012.97 1012.34 1011.65 1010.96 1010.29 1009.70 1009.20 1008.84 1008.61 1008.52 1008.56 1008.71 1008.97 1009.32 1009.74 1010.24 1010.79 1011.42 1012.12 1012.89 1013.73 1014.62 1015.55 1016.50 1017.43 1018.34 1019.18 1019.95 1020.63 1021.23 1021.74 1022.18 1022.56 1022.90 1023.19 1023.44 1023.65 1023.81 1023.91 1023.94 1023.90 1023.77 1023.56
1012.77 1012.16 1011.48 1010.77 1010.07 1009.42 1008.87 1008.43 1008.12 1007.94 1007.90 1007.98 1008.17 1008.45 1008.80 1009.22 1009.70 1010.24 1010.85 1011.52 1012.27 1013.09 1013.97 1014.89 1015.84 1016.79 1017.71 1018.58 1019.39 1020.11 1020.75 1021.31 1021.80 1022.22 1022.58 1022.90 1023.16 1023.38 1023.53 1023.62 1023.63 1023.56 1023.40 1023.18
1011.75 1011.12 1010.44 1009.77 1009.12 1008.56 1008.09 1007.74 1007.52 1007.43 1007.46 1007.59 1007.82 1008.11 1008.47 1008.88 1009.34 1009.85 1010.42 1011.07 1011.78 1012.57 1013.41 1014.32 1015.25 1016.19 1017.12 1018.01 1018.83 1019.59 1020.26 1020.86 1021.37 1021.82 1022.21 1022.54 1022.80 1023.01 1023.15 1023.21 1023.20 1023.11 1022.93 1022.69
1010.54 1009.94 1009.32 1008.73 1008.20 1007.75 1007.41 1007.18 1007.08 1007.08 1007.18 1007.37 1007.62 1007.93 1008.29 1008.68 1009.11 1009.59 1010.12 1010.72 1011.39 1012.13 1012.93 1013.80 1014.70 1015.62 1016.53 1017.42 1018.25 1019.02 1019.72 1020.34 1020.88 1021.35 1021.75 1022.08 1022.34 1022.53 1022.65 1022.70 1022.67 1022.55 1022.37 1022.12
1009.29 1008.76 1008.24 1007.77 1007.37 1007.07 1006.86 1006.77 1006.77 1006.86 1007.03 1007.26 1007.54 1007.85 1008.19 1008.55 1008.95 1009.38 1009.87 1010.41 1011.03 1011.72 1012.47 1013.29 1014.15 1015.03 1015.92 1016.79 1017.62 1018.39 1019.10 1019.73 1020.29 1020.77 1021.17 1021.50 1021.76 1021.95 1022.06 1022.09 1022.04 1021.92 1021.73 1021.47
1008.15 1007.71 1007.30 1006.96 1006.70 1006.53 1006.46 1006.47 1006.57 1006.73 1006.94 1007.19 1007.47 1007.77 1008.08 1008.41 1008.77 1009.16 1009.59 1010.09 1010.65 1011.28 1011.99 1012.75 1013.56 1014.40 1015.25 1016.10 1016.91 1017.67 1018.38 1019.02 1019.59 1020.08 1020.49 1020.83 1021.09 1021.28 1021.38 1021.41 1021.36 1021.24 1021.04 1020.79
1007.25 1006.89 1006.59 1006.36 1006.22 1006.16 1006.18 1006.27 1006.42 1006.61 1006.84 1007.09 1007.35 1007.61 1007.89 1008.18 1008.50 1008.85 1009.24 1009.70 1010.21 1010.80 1011.45 1012.16 1012.92 1013.71 1014.53 1015.34 1016.12 1016.88 1017.58 1018.23 1018.81 1019.31 1019.74 1020.09 1020.37 1020.56 1020.67 1020.70 1020.65 1020.53 1020.34 1020.10
1006.66 1006.37 1006.15 1006.00 1005.94 1005.94 1006.01 1006.13 1006.29 1006.47 1006.67 1006.89 1007.11 1007.34 1007.57 1007.83 1008.11 1008.43 1008.80 1009.22 1009.70 1010.25 1010.85 1011.52 1012.23 1012.98 1013.75 1014.53 1015.29 1016.03 1016.74 1017.39 1017.98 1018.51 1018.96 1019.33 1019.62 1019.83 1019.96 1020.00 1019.96 1019.84 1019.65 1019.40
1006.37 1006.13 1005.96 1005.86 1005.82 1005.84 1005.91 1006.01 1006.13 1006.27 1006.42 1006.58 1006.74 1006.92 1007.13 1007.35 1007.61 1007.91 1008.26 1008.67 1009.13 1009.65 1010.23 1010.85 1011.53 1012.23 1012.96 1013.71 1014.45 1015.18 1015.88 1016.54 1017.15 1017.70 1018.18 1018.58 1018.90 1019.14 1019.28 1019.33 1019.29 1019.16 1018.96 1018.69
1006.36 1006.15 1006.00 1005.90 1005.85 1005.84 1005.86 1005.89 1005.95 1006.01 1006.09 1006.18 1006.29 1006.42 1006.59 1006.79 1007.04 1007.34 1007.69 1008.09 1008.54 1009.04 1009.60 1010.19 1010.83 1011.50 1012.19 1012.90 1013.62 1014.34 1015.04 1015.72 1016.35 1016.93 1017.44 1017.87 1018.22 1018.47 1018.62 1018.67 1018.63 1018.49 1018.27 1017.97
1006.55 1006.34 1006.18 1006.06 1005.97 1005.90 1005.85 1005.80 1005.77 1005.74 1005.74 1005.75 1005.81 1005.90 1006.05 1006.24 1006.49 1006.79 1007.14 1007.54 1007.98 1008.47 1009.00 1009.56 1010.16 1010.79 1011.45 1012.13 1012.83 1013.54 1014.25 1014.93 1015.59 1016.19 1016.73 1017.19 1017.56 1017.82 1017.97 1018.02 1017.96 1017.79 1017.54 1017.21
1006.84 1006.64 1006.46 1006.31 1006.16 1006.02 1005.88 1005.75 1005.62 1005.52 1005.43 1005.39 1005.40 1005.46 1005.58 1005.77 1006.01 1006.31 1006.66 1007.06 1007.49 1007.95 1008.45 1008.97 1009.53 1010.11 1010.73 1011.38 1012.06 1012.76 1013.46 1014.16 1014.83 1015.46 1016.03 1016.50 1016.88 1017.14 1017.29 1017.32 1017.23 1017.03 1016.74 1016.37
1007.17 1006.97 1006.78 1006.59 1006.39 1006.19 1005.98 1005.77 1005.57 1005.39 1005.25 1005.15 1005.12 1005.15 1005.26 1005.43 1005.67 1005.96 1006.30 1006.67 1007.07 1007.49 1007.94 1008.41 1008.91 1009.44 1010.01 1010.62 1011.27 1011.96 1012.66 1013.36 1014.05 1014.69 1015.27 1015.75 1016.13 1016.39 1016.52 1016.52 1016.40 1016.17 1015.84 1015.44
1007.47 1007.28 1007.09 1006.88 1006.65 1006.40 1006.14 1005.88 1005.63 1005.40 1005.21 1005.08 1005.01 1005.02 1005.10 1005.25 1005.47 1005.73 1006.02 1006.35 1006.69 1007.05 1007.43 1007.83 1008.26 1008.73 1009.24 1009.81 1010.43 1011.09 1011.79 1012.49 1013.18 1013.83 1014.42 1014.90 1015.27 1015.52 1015.63 1015.60 1015.46 1015.20 1014.85 1014.43
1007.73 1007.56 1007.37 1007.16 1006.92 1006.65 1006.37 1006.08 1005.79 1005.54 1005.32 1005.16 1005.07 1005.05 1005.09 1005.21 1005.37 1005.58 1005.81 1006.06 1006.32 1006.60 1006.89 1007.20 1007.55 1007.95 1008.40 1008.92 1009.50 1010.14 1010.82 1011.52 1012.21 1012.86 1013.44 1013.93 1014.29 1014.53 1014.62 1014.58 1014.41 1014.14 1013.79 1013.38
1007.93 1007.79 1007.62 1007.42 1007.19 1006.92 1006.63 1006.33 1006.04 1005.77 1005.53 1005.35 1005.23 1005.17 1005.17 1005.23 1005.32 1005.45 1005.60 1005.76 1005.92 1006.09 1006.29 1006.50 1006.77 1007.09 1007.48 1007.95 1008.49 1009.10 1009.76 1010.45 1011.14 1011.79 1012.37 1012.85 1013.21 1013.43 1013.52 1013.47 1013.31 1013.05 1012.71 1012.33
1008.10 1007.98 1007.84 1007.65 1007.44 1007.19 1006.91 1006.61 1006.32 1006.04 1005.79 1005.58 1005.43 1005.32 1005.26 1005.25 1005.26 1005.30 1005.34 1005.40 1005.46 1005.53 1005.62 1005.75 1005.93 1006.17 1006.50 1006.92 1007.43 1008.02 1008.66 1009.34 1010.01 1010.66 1011.23 1011.71 1012.07 1012.29 1012.38 1012.35 1012.20 1011.97 1011.67 1011.34
1008.25 1008.15 1008.02 1007.86 1007.66 1007.43 1007.16 1006.87 1006.58 1006.29 1006.02 1005.79 1005.59 1005.43 1005.30 1005.21 1005.14 1005.08 1005.03 1004.98 1004.94 1004.92 1004.92 1004.97 1005.08 1005.27 1005.55 1005.93 1006.40 1006.96 1007.58 1008.24 1008.91 1009.54 1010.11 1010.58 1010.94 1011.17 1011.27 1011.26 1011.15 1010.96 1010.72 1010.44
1008.40 1008.31 1008.20 1008.05 1007.86 1007.63 1007.37 1007.08 1006.78 1006.47 1006.18 1005.91 1005.66 1005.45 1005.26 1005.09 1004.94 1004.80 1004.66 1004.53 1004.42 1004.32 1004.25 1004.24 1004.30 1004.45 1004.69 1005.04 1005.48 1006.02 1006.62 1007.25 1007.90 1008.51 1009.06 1009.53 1009.88 1010.12 1010.25 1010.26 1010.19 1010.05 1009.86 1009.65
1008.56 1008.48 1008.36 1008.21 1008.02 1007.79 1007.52 1007.22 1006.90 1006.57 1006.25 1005.93 1005.64 1005.38 1005.13 1004.90 1004.69 1004.49 1004.29 1004.11 1003.94 1003.80 1003.70 1003.66 1003.69 1003.80 1004.02 1004.34 1004.76 1005.26 1005.83 1006.44 1007.05 1007.63 1008.16 1008.60 1008.95 1009.19 1009.32 1009.36 1009.32 1009.23 1009.09 1008.94
Thickness
5696 5703 5704 5706 5707 5703 5701 5699 5694 5703 5707 5722 5728 5729 5728 5725 5721 5718 5716 5715 5714 5711 5709 5707 5706 5705 5704 5703 5701 5700 5698 5696 5693 5692 5691 5689 5688 5686 5684 5683 5681 5678 5676 5674
5696 5704 5703 5704 5709 5708 5707 5708 5707 5711 5714 5732 5733 5728 5725 5723 5721 5719 5718 5717 5714 5711 5709 5707 5705 5703 5701 5699 5698 5696 5694 5691 5690 5688 5686 5684 5683 5681 5679 5677 5675 5673 5670 5668
5683 5695 5700 5694 5711 5712 5712 5716 5715 5711 5724 5729 5726 5728 5729 5728 5726 5725 5723 5719 5716 5713 5710 5707 5704 5702 5699 5696 5694 5692 5689 5687 5685 5683 5681 5678 5677 5675 5672 5670 5668 5666 5664 5662
5679 5687 5678 5706 5727 5726 5722 5724 5725 5730 5733 5733 5737 5737 5736 5734 5731 5728 5724 5720 5717 5713 5709 5705 5703 5700 5697 5693 5690 5687 5684 5682 5680 5678 5675 5672 5670 5668 5665 5663 5661 5659 5657 5655
5670 5673 5683 5707 5724 5724 5719 5721 5733 5731 5733 5732 5731 5729 5728 5733 5734 5732 5729 5724 5719 5714 5709 5704 5700 5697 5692 5688 5685 5682 5679 5677 5674 5672 5669 5666 5664 5661 5659 5656 5654 5652 5650 5648
5667 5673 5675 5706 5730 5734 5726 5717 5738 5735 5733 5727 5725 5715 5727 5736 5734 5729 5725 5721 5716 5711 5705 5700 5697 5693 5689 5683 5680 5677 5675 5673 5670 5667 5664 5661 5658 5655 5652 5649 5646 5644 5642 5640
5667 5670 5684 5717 5728 5727 5706 5718 5742 5739 5735 5730 5730 5738 5742 5738 5733 5728 5723 5718 5713 5707 5702 5698 5693 5689 5684 5679 5676 5674 5671 5667 5663 5661 5658 5655 5651 5648 5645 5642 5639 5636 5633 5631
5663 5666 5684 5724 5720 5717 5725 5740 5741 5739 5737 5734 5735 5735 5735 5733 5728 5723 5718 5713 5709 5703 5698 5693 5689 5686 5680 5675 5673 5668 5664 5660 5657 5654 5652 5649 5644 5640 5637 5633 5630 5626 5623 5621
5684 5695 5714 5719 5723 5731 5734 5735 5738 5737 5737 5735 5730 5729 5728 5725 5722 5718 5714 5709 5704 5699 5693 5687 5684 5682 5676 5672 5667 5662 5657 5653 5649 5646 5643 5640 5636 5632 5628 5624 5620 5617 5614 5611
5683 5697 5709 5716 5721 5726 5730 5732 5736 5737 5735 5732 5728 5725 5722 5718 5715 5711 5708 5703 5699 5693 5687 5681 5677 5675 5672 5667 5661 5656 5650 5645 5641 5638 5634 5631 5627 5624 5619 5615 5611 5608 5605 5602
5682 5696 5704 5715 5719 5723 5726 5728 5730 5730 5729 5728 5724 5720 5717 5713 5709 5706 5701 5697 5693 5689 5683 5678 5672 5668 5664 5659 5654 5649 5643 5638 5634 5630 5626 5622 5619 5615 5612 5609 5605 5601 5597 5593
5684 5698 5699 5708 5717 5719 5720 5721 5723 5722 5721 5720 5719 5715 5711 5707 5704 5700 5695 5690 5685 5681 5676 5671 5666 5661 5657 5652 5648 5642 5636 5630 5626 5621 5617 5613 5609 5606 5604 5601 5599 5595 5591 5587
5692 5698 5698 5704 5708 5711 5712 5714 5715 5715 5715 5712 5710 5708 5705 5700 5696 5692 5687 5683 5679 5675 5670 5664 5659 5655 5650 5645 5641 5636 5630 5624 5618 5613 5609 5604 5600 5595 5592 5591 5589 5585 5582 5577
5685 5688 5689 5694 5696 5701 5702 5705 5705 5705 5705 5704 5701 5698 5695 5691 5686 5683 5680 5677 5673 5667 5661 5656 5652 5648 5644 5638 5633 5628 5622 5618 5612 5605 5600 5595 5591 5587 5582 5578 5575 5572 5570 5567
5677 5679 5681 5685 5687 5690 5691 5692 5691 5691 5691 5690 5690 5688 5685 5682 5679 5676 5672 5667 5662 5657 5652 5648 5644 5640 5635 5630 5625 5619 5614 5608 5603 5597 5591 5587 5582 5577 5573 5568 5564 5560 5557 5555
5670 5670 5671 5672 5675 5677 5678 5679 5679 5679 5679 5679 5678 5677 5676 5674 5670 5666 5662 5658 5652 5648 5644 5639 5636 5633 5627 5622 5616 5610 5605 5602 5596 5588 5583 5577 5572 5568 5563 5558 5554 5549 5545 5543
5658 5659 5660 5661 5663 5665 5667 5669 5670 5670 5669 5668 5668 5666 5663 5660 5656 5652 5650 5647 5644 5640 5636 5631 5628 5624 5618 5613 5607 5601 5596 5591 5588 5581 5574 5569 5564 5559 5554 5549 5544 5540 5537 5533
5653 5656 5656 5657 5657 5656 5657 5659 5659 5659 5659 5659 5657 5653 5651 5648 5645 5643 5639 5634 5630 5626 5624 5621 5618 5613 5608 5603 5597 5592 5586 5581 5575 5570 5565 5560 5555 5550 5544 5539 5535 5530 5527 5522
5643 5645 5646 5648 5649 5648 5648 5648 5648 5649 5648 5647 5644 5642 5640 5638 5635 5631 5626 5621 5618 5615 5613 5610 5608 5602 5597 5593 5588 5581 5576 5570 5565 5560 5555 5551 5546 5539 5534 5528 5524 5519 5515 5510
5630 5633 5635 5636 5637 5637 5637 5637 5637 5637 5636 5635 5632 5629 5626 5624 5621 5618 5614 5611 5610 5609 5606 5600 5596 5591 5587 5582 5578 5570 5565 5560 5554 5549 5544 5538 5533 5528 5523 5518 5513 5508 5503 5498
5617 5620 5622 5623 5624 5625 5626 5626 5625 5624 5624 5622 5620 5618 5615 5612 5609 5605 5601 5599 5599 5596 5592 5589 5584 5580 5575 5571 5567 5559 5554 5549 5543 5538 5533 5528 5522 5517 5512 5507 5502 5496 5492 5487
5601 5604 5607 5609 5610 5611 5611 5612 5612 5612 5610 5609 5607 5605 5601 5598 5595 5592 5591 5590 5588 5584 5579 5576 5572 5569 5565 5561 5554 5548 5543 5538 5532 5527 5522 5516 5511 5505 5500 5495 5490 5485 5480 5475
5586 5589 5593 5595 5596 5597 5597 5598 5598 5598 5597 5596 5594 5591 5588 5586 5582 5579 5577 5576 5573 5572 5568 5564 5562 5559 5555 5549 5542 5537 5531 5526 5521 5515 5510 5505 5499 5494 5488 5483 5478 5473 5468 5463
5572 5574 5577 5579 5581 5581 5582 5583 5583 5583 5582 5581 5580 5578 5575 5571 5568 5568 5567 5565 5562 5560 5555 5553 5550 5547 5543 5536 5530 5524 5519 5514 5508 5503 5498 5492 5486 5481 5476 5471 5466 5461 5456 5452
5556 5558 5560 5563 5565 5567 5567 5567 5567 5567 5566 5565 5564 5563 5561 5560 5557 5555 5552 5550 5549 5546 5542 5539 5537 5533 5528 5522 5516 5511 5506 5501 5495 5490 5484 5479 5474 5469 5464 5459 5454 5450 5445 5441
5541 5543 5545 5548 5549 5550 5551 5550 5550 5550 5550 5548 5547 5546 5545 5544 5542 5540 5538 5536 5534 5532 5527 5523 5520 5517 5512 5507 5502 5498 5492 5488 5483 5478 5472 5467 5462 5458 5453 5448 5444 5439 5435 5431
5525 5528 5529 5531 5533 5534 5534 5534 5534 5534 5535 5534 5532 5531 5529 5527 5526 5524 5522 5520 5517 5514 5511 5508 5504 5500 5496 5492 5488 5483 5478 5474 5469 5465 5460 5456 5451 5447 5442 5438 5433 5429 5425 5421